Weather Roundup
Issued by NWS Corpus Christi, TX

Home | Current Version | Previous Version | Text Only | Print | Product List | Glossary On
Versions: 1 2 3 4 5 6 7 8 9 10 11 12 13 14 15 16 17 18 19 20 21 22 23 24 25 26 27 28 29 30 31 32 33 34 35 36 37 38 39 40 41 42 43 44 45 46 47 48 49 50
000
ASUS44 KCRP 231110
HRRCRP

SOUTH TEXAS REGIONAL WEATHER ROUNDUP
NATIONAL WEATHER SERVICE CORPUS CHRISTI TX
600 AM CDT SAT SEP 23 2017


TXZ229>244-231200-
...CORPUS CHRISTI AREA OBSERVATIONS...

CITY           SKY/WX    TMP DP  RH WIND       PRES   REMARKS
CORPUS CHRISTI PTCLDY    75  73  93 SE6       29.86S
NAS CORPUS CHR NOT AVBL
ROCKPORT       NOT AVBL
KINGSVILLE ARP FAIR      74  74 100 CALM      29.86S
KINGSVILLE NAS PTCLDY    75  74  96 E3        29.85S
ALICE          NOT AVBL
$$

...VICTORIA AREA OBSERVATIONS...

CITY           SKY/WX    TMP DP  RH WIND       PRES   REMARKS
PORT LAVACA    NOT AVBL
VICTORIA       CLEAR     72  71  97 NE6       29.89S FOG
BEEVILLE       CLOUDY    70  70 100 E3        29.88S FOG
PLEASANTON     MOCLDY    73  72  97 CALM      29.90S
SAN ANTONIO    NOT AVBL
$$

...LAREDO AREA OBSERVATIONS...

CITY           SKY/WX    TMP DP  RH WIND       PRES   REMARKS
LAREDO         NOT AVBL
DEL RIO        NOT AVBL
MCALLEN        NOT AVBL
HEBBRONVILLE   PTCLDY    73  72  94 SE5       29.88S FOG
$$

...OTHER TEXAS OBSERVATIONS...

CITY           SKY/WX    TMP DP  RH WIND       PRES   REMARKS
BROWNSVILLE    PTCLDY    77  75  94 E3        29.84
HOUSTON        NOT AVBL
COL. STATION   NOT AVBL
AUSTIN         FOG       72  72 100 CALM      29.92S VSB 3/4
WACO           CLEAR     71  68  90 SE5       29.93S
FORT WORTH     CLEAR     75  69  81 S6        29.92S
WICHITA FALLS  CLEAR     70  66  87 SE6       29.92R
LUBBOCK        CLOUDY    69  63  81 SE14      29.92S
EL PASO        CLOUDY    73  60  63 W5        29.83S
$$

...MARINE OBSERVATIONS...

STATION/POSITION TIME  SKY/WX   TEMP    WIND        PRES    VSBY  WAVE   SWELL
                                AIR SEA DIR/SP/G                  HT/PER HT/PER
                 (UTC)          (F)     (DEG/KT/KT) (MB)    (MI)  (FT/S) (FT/S)
PORT ARANSAS     NOT AVBL
BUOY 90 E PORT A 0950            83 84   90/ 10/ 12 1011.4          3/ 5   2/ 5
BUOY 200 E PT IS 0950            82 85  130/ 12/ 16 1010.9          3/ 5
BUOY 15 E GALVES NOT AVBL
$$




USA.gov is the U.S. government's official web portal to all federal, state and local government web resources and services.